Location: Newark
(49.8969°N, 3.3422°E)
Time: 20:59:16
(UTC+00:00)

Explorer 7 - Pass Details

Date: 27 January 2020
Orbit: 485 x 679 km, 50.3° (Epoch: 26 February)

Event Time Altitude Azimuth Distance (km) Brightness Sun altitude
Rises 21:05:21 0° 208° (SSW) 2,590 - -43.2°
Reaches altitude 10° 21:07:57 10° 192° (SSW) 1,688 - -43.6°
Maximum altitude 21:10:48 20° 143° (SE) 1,166 - -44.0°
Drops below altitude 10° 21:13:37 10° 94° (E) 1,669 - -44.4°
Sets 21:16:10 0° 77° (ENE) 2,552 - -44.8°
